Location: Nebika
(29.7800°N, 6.4800°W)
Time: 23:47:12
(UTC+00:00)

Daily predictions for brighter satellites

Satellite Brightness Start Highest point End
(mag) Time Altitude Azimuth Time Altitude Azimuth Time Altitude Azimuth
Cosmos 923 Rocket 4.3 17:42:42 10° S 17:47:40 49° ESE 17:52:40 10° NNE
Cosmos 1515 Rocket 3.5 17:45:13 10° S 17:49:34 70° E 17:53:57 10° N
Cosmos 1470 Rocket 3.8 17:47:29 10° N 17:51:39 46° E 17:55:48 10° SSE
Cosmos 2084 3.8 17:47:45 10° S 17:51:49 49° ESE 17:55:58 10° NE
Lacrosse 4 Rocket 2.1 17:49:22 10° S 17:52:59 32° ESE 17:56:38 10° NE
Cosmos 1437 Rocket 4.5 17:53:07 10° SE 17:55:27 15° E 17:57:47 10° NE
USA 276 2.1 17:54:28 10° SW 17:57:39 89° SE 18:00:52 10° NE
H-2A R/B 3.1 17:56:11 10° S 18:00:26 62° WSW 18:04:31 10° NNW
Hubble Space Telescope 1.6 17:58:54 10° SW 18:02:47 41° SSE 18:06:40 10° E
COSMO-SKYMED 1 2.9 18:03:00 10° NNE 18:07:10 45° E 18:11:19 10° S
CZ-2C R/B 4.3 18:04:46 10° ESE 18:07:43 16° ENE 18:10:36 10° NNE
Cosmos 1461 3.1 18:05:14 10° SSW 18:09:41 79° ESE 18:14:21 10° NNE
H-2A R/B4.318:13:25NNE18:13:25NNE18:06:12ESE
Meteor 1-10 Rocket 4.4 18:04:44 10° SSE 18:10:10 49° E 18:15:31 10° NNE
Cosmos 1500 3.9 18:08:00 10° NNE 18:11:27 31° E 18:14:52 10° SE
Cosmos 2228 Rocket 3.2 18:08:19 10° S 18:12:46 58° E 18:17:11 10° NNE
SL-24 R/B 4.0 18:10:06 10° NNE 18:13:36 43° E 18:17:08 10° S
Cosmos 1680 Rocket 3.5 18:08:31 10° S 18:13:43 67° ESE 18:18:58 10° NNE
SMAP 3.4 18:09:57 10° S 18:14:35 72° WSW 18:19:14 10° NNW
Cosmos 1656 Rocket 4.5 18:10:02 10° N 18:14:46 27° ENE 18:19:24 10° ESE
CENTAUR R/B 2.3 18:10:05 10° SSW 18:15:31 79° ESE 18:21:53 10° NNE
Nadezhda 3 Rocket 4.0 18:10:33 10° S 18:16:49 64° E 18:23:06 10° NNE
FengYun 1-2 T 4.2 18:12:04 10° SSE 18:17:34 73° ENE 18:23:03 10° N
SAR-Lupe-4 3.7 18:14:34 10° NNE 18:18:04 51° E 18:21:33 10° S
Orbus 7S 4.1 18:18:30 10° W 18:20:59 30° SSW 18:23:28 10° SE
Cosmos 1933 Rocket 3.5 18:17:07 10° N 18:21:34 72° E 18:25:57 10° SSE
Sakura Rocket 2.6 18:18:36 10° W 18:22:12 76° S 18:25:04 18° E
ATLAS 3B CENTAUR R/B 2.3 18:24:48 10° WSW 18:26:05 15° SSW 18:27:20 10° SSE
Feng Yun 1-1 Rocket 4.3 18:22:43 10° SSE 18:28:22 57° ENE 18:33:52 10° N
IRS-1C Rocket 4.4 18:24:36 10° SE 18:29:33 42° ENE 18:34:30 10° N
SL-24 DEB 4.2 18:26:11 10° N 18:30:54 84° E 18:35:32 10° S
NOSS 3-2 (C) 3.3 18:25:41 10° SSW 18:31:03 77° WNW 18:37:02 10° NNE
Cosmos 1821 Rocket 4.1 18:26:41 10° N 18:32:53 58° E 18:39:08 10° SSE
Cosmos 1689 Rocket 1.9 18:31:22 17° NNE 18:33:28 66° ESE 18:36:23 10° S
SL-8 R/B 4.0 18:29:02 10° WSW 18:33:45 63° NW 18:37:06 19° NE
Cosmos 2112 Rocket 4.0 18:29:42 10° SSW 18:34:57 88° WNW 18:40:17 10° NNE
SAR-Lupe-1 4.0 18:31:22 10° NNE 18:34:58 89° ESE 18:38:32 10° SSW
Orbus 7S 3.7 18:35:47 10° W 18:39:23 43° SSW 18:40:46 22° SE
Cosmos 1812 3.4 18:35:45 10° SSW 18:39:30 55° W 18:43:15 10° N
ATLAS CENTAUR R/B 3.4 18:38:40 10° SE 18:39:21 12° SE 18:39:21 12° SE
Cosmos 2263 4.1 18:35:17 10° NNW 18:40:51 66° ENE 18:46:24 10° SSE
Cosmos 482 Debris 3.5 18:39:10 10° NW 18:40:40 42° N 18:40:40 42° N
Okean O Rocket 3.2 18:37:27 10° SSW 18:41:29 37° W 18:45:32 10° NNW
CZ-4B R/B 3.7 18:39:46 10° NNW 18:42:21 23° WNW 18:44:58 10° SW
FALCON 9 R/B 1.3 18:42:12 10° WNW 18:44:09 32° N 18:44:09 32° N
BREEZE-M TANK 2.8 18:41:15 10° WNW 18:44:46 62° SW 18:48:45 10° SE
ATLAS CENTAUR R/B 3.8 18:30:18 10° NW 18:46:25 79° NE 18:52:05 10° SE
Okean-O 3.1 18:42:48 10° SE 18:46:51 37° ENE 18:50:56 10° N
CZ-3B R/B 4.2 18:48:22 10° SW 18:54:07 47° SSE 19:02:43 24° E
Cosmos 1238 Rocket 3.3 18:50:50 10° N 18:55:32 82° E 19:01:11 10° S
Cosmos 1869 Rocket 3.4 18:52:18 10° N 18:56:45 69° E 19:01:08 10° SSE
MOS 1 Rocket 3.5 18:53:27 10° NNE 18:58:53 83° ESE 19:04:04 10° S
CZ-2D R/B 3.3 19:01:07 10° S 19:04:54 75° W 19:08:44 10° NNW
Cosmos 1939 Rocket 3.9 19:02:34 10° S 19:06:16 44° W 19:10:01 10° NNW
DMSP B5D1-3 4.4 19:04:19 25° NNE 19:07:24 75° ESE 19:12:30 10° S
Cosmos 1943 Rocket 4.5 19:04:18 10° NW 19:08:44 25° WSW 19:13:12 10° SSW
Cosmos 44 Rocket 3.4 19:04:05 10° NNW 19:09:13 58° ENE 19:10:13 49° ESE
SWIFT 4.1 19:06:07 10° SW 19:09:17 21° S 19:10:00 20° SSE
USA 215 3.8 19:05:26 19° NNE 19:10:04 53° NW 19:16:22 10° WSW
Intelsat 5-3 Rocket 4.2 19:08:06 10° SSW 19:10:15 14° S 19:10:21 14° S
Helios 1A Rocket 4.1 19:06:40 10° SSE 19:16:43 - N 19:08:38 28° SSE
CZ-4 R/B 1.4 19:08:52 10° SSE 19:18:11 - N 19:12:08 61° SSE
USA 281 3.4 19:12:53 38° ESE 19:14:43 47° ENE 19:20:56 10° N
YAOGAN 1 3.5 19:11:14 10° SSE 19:21:17 - N 19:13:41 33° SSE
Cosmos 2369 Rocket 3.6 19:10:23 10° NW 19:15:35 39° WSW 19:20:44 10° S
Meteor 1-11 Rocket 3.7 19:12:28 10° N 19:18:21 88° E 19:24:18 10° S
Cosmos 1339 Rocket 4.4 19:12:19 10° S 19:18:30 83° E 19:23:53 15° N
CZ-2C R/B 4.0 19:24:30 24° SSE 19:24:30 24° SSE 19:26:43 10° S
Skynet4D Del rocket 4.2 19:25:25 10° WSW 19:31:24 58° SSE 19:32:22 52° SE
Lacrosse 4 Rocket 4.1 19:29:29 10° W 19:31:42 14° WNW 19:33:57 10° NNW
ATLAS 3B R/B 2.4 19:35:17 10° SSW 19:41:50 86° ESE 19:42:21 77° NE
Hubble Space Telescope 2.4 19:39:42 10° W 19:42:06 33° WSW 19:42:06 33° WSW
CZ-2C R/B 4.1 19:42:30 10° S 19:47:16 41° W 19:51:51 10° NNW
H-2A R/B 3.1 19:43:40 10° S 19:54:03 10° NNW 19:54:06 10° NNW
Cosmos 2344 3.5 20:02:54 10° SSW 20:10:09 75° SSW 20:10:09 75° SSW
